Hourly Data Report for April 23, 2003

TORONTO CITY
ONTARIO

43°40'00.000" N
79°24'00.000" W
112.50 m
6158355
71508
XTO

Download Data

Hourly Data (April 2003)
Hourly Data Report for April 23, 2003
TIME
LST
Temp Definition
°C
Dew Point Definition
°C
Rel Hum Definition
%
Precip. Amount Definition
mm

Wind Dir Definition
10's deg

Wind Spd Definition
km/h
Visibility Definition
km
Stn Press Definition
kPa
Hmdx Definition


Wind Chill Definition


Weather Definition


00:00 2.2 -1.3 78   LegendMM LegendMM LegendMM 99.85     LegendNANA
01:00 1.5 -2.4 75   LegendMM LegendMM LegendMM 99.86     LegendNANA
02:00 1.1 -2.7 76   LegendMM LegendMM LegendMM 99.90     LegendNANA
03:00 0.8 -3.0 76   LegendMM LegendMM LegendMM 99.91     LegendNANA
04:00 0.5 -3.2 76   LegendMM LegendMM LegendMM 99.94     LegendNANA
05:00 0.2 -3.9 74   LegendMM LegendMM LegendMM 99.99     LegendNANA
06:00 -0.6 -5.8 68   LegendMM LegendMM LegendMM 100.10     LegendNANA
07:00 -0.8 -5.9 68   LegendMM LegendMM LegendMM 100.15     LegendNANA
08:00 -0.5 -6.0 66   LegendMM LegendMM LegendMM 100.21     LegendNANA
09:00 0.3 -5.0 68   LegendMM LegendMM LegendMM 100.25     LegendNANA
10:00 1.6 -5.6 59   LegendMM LegendMM LegendMM 100.26     LegendNANA
11:00 1.8 -3.6 67   LegendMM LegendMM LegendMM 100.28     LegendNANA
12:00 1.1 -4.0 69   LegendMM LegendMM LegendMM 100.31     LegendNANA
13:00 2.5 -2.6 69   LegendMM LegendMM LegendMM 100.32     LegendNANA
14:00 3.9 -2.7 62   LegendMM LegendMM LegendMM 100.29     LegendNANA
15:00 4.9 -2.4 59   LegendMM LegendMM LegendMM 100.25     LegendNANA
16:00 5.6 -1.6 60   LegendMM LegendMM LegendMM 100.28     LegendNANA
17:00 5.2 -1.9 60   LegendMM LegendMM LegendMM 100.33     LegendNANA
18:00 4.7 -4.2 52   LegendMM LegendMM LegendMM 100.35     LegendNANA
19:00 4.6 -5.6 47   LegendMM LegendMM LegendMM 100.37     LegendNANA
20:00 4.2 -7.2 43   LegendMM LegendMM LegendMM 100.43     LegendNANA
21:00 3.6 -7.3 45   LegendMM LegendMM LegendMM 100.51     LegendNANA
22:00 3.2 -6.6 49   LegendMM LegendMM LegendMM 100.52     LegendNANA
23:00 2.9 -5.5 54   LegendMM LegendMM LegendMM 100.53     LegendNANA

Notes on Data Quality.

Legend

  • E = Estimated
  • M = Missing
  • NA = Not Available*
  • [empty] = Indicates an unobserved value
Date modified: